Cedar, IA

9:47 AM CDT on September 30, 2016 (GMT -0500)
Oskaloosa Municipal

Weather History for KOOA - March, 2014

Change the Weather History Date:

Wednesday, March 26, 2014

  Actual Average (KOTM) Record (KOTM)
Temperature  
Mean Temperature 33 °F 43 °F  
Max Temperature 50 °F 54 °F 86 °F (1907)
Min Temperature 17 °F 32 °F 3 °F (1955)
Degree Days  
Heating Degree Days 32 22  
Month to date heating degree days 707  
Since 1 July heating degree days 5592  
Cooling Degree Days 0 0  
Month to date cooling degree days 0  
Year to date cooling degree days 0  
Moisture  
Dew Point 19 °F    
Average Humidity 60    
Maximum Humidity 91    
Minimum Humidity 31    
Precipitation  
Precipitation 0.01 in 0.07 in 2.00 in (1916)
Month to date precipitation 1.82  
Year to date precipitation 4.00  
Sea Level Pressure  
Sea Level Pressure 30.05 in    
Wind  
Wind Speed 13 mph (SSE)    
Max Wind Speed 26 mph    
Max Gust Speed 38 mph    
Visibility 10 miles    
Events Rain    
T = Trace of Precipitation, MM = Missing Value Source: NWS Daily Summary

Daily Weather History Graph

Daily Weather History Graph

Search for Another Location

Airport or City:

Trip Planner

Search our weather history database for the weather conditions in past years. The results will help you decide how hot, cold, wet, or windy it might be!

Date:

Astronomy

Mar. 26, 2014 Rise Set
Actual Time 7:03 AM CDT 7:28 PM CDT
Civil Twilight 6:35 AM CDT 7:56 PM CDT
Nautical Twilight 6:03 AM CDT 8:28 PM CDT
Astronomical Twilight 5:29 AM CDT 9:02 PM CDT
Moon 4:14 AM CDT (3/26) 3:05 PM CDT (3/26)
Length of Visible Light 13h 20m
Length of Day
12h 25m
Waning Crescent, 21% of the Moon is Illuminated
Mar 26
Waning Crescent
Mar 30
New
Apr 7
First Quarter
Apr 15
Full
Apr 22
Last Quarter

Hourly Weather History & Observations

Time (CDT) Temp. Windchill Dew Point Humidity Pressure Visibility Wind Dir Wind Speed Gust Speed Precip Events Conditions
12:15 AM 17.8 °F 9.6 °F 13.3 °F 83% 30.25 in 10.0 mi SE 5.8 mph - N/A   Clear
12:35 AM 18.0 °F 8.7 °F 13.1 °F 81% 30.25 in 10.0 mi SE 6.9 mph - N/A   Clear
12:55 AM 18.3 °F 9.1 °F 13.6 °F 82% 30.25 in 10.0 mi SE 6.9 mph - N/A   Clear
1:15 AM 17.6 °F 8.2 °F 13.1 °F 83% 30.24 in 10.0 mi SSE 6.9 mph - N/A   Clear
1:35 AM 18.0 °F 8.7 °F 13.1 °F 81% 30.24 in 10.0 mi SSE 6.9 mph - N/A   Clear
1:55 AM 17.6 °F 9.3 °F 13.1 °F 83% 30.24 in 10.0 mi SE 5.8 mph - N/A   Clear
2:15 AM 17.6 °F 9.3 °F 13.1 °F 83% 30.24 in 10.0 mi SE 5.8 mph - N/A   Clear
2:35 AM 18.0 °F 7.7 °F 13.1 °F 81% 30.23 in 10.0 mi SE 8.1 mph - N/A   Clear
2:55 AM 17.4 °F 8.0 °F 13.1 °F 83% 30.24 in 10.0 mi SSE 6.9 mph - N/A   Clear
3:15 AM 17.6 °F 7.3 °F 13.1 °F 83% 30.23 in 10.0 mi SSE 8.1 mph - N/A   Clear
3:35 AM 17.6 °F 8.2 °F 13.1 °F 83% 30.22 in 10.0 mi SE 6.9 mph - N/A   Clear
3:55 AM 17.6 °F 7.3 °F 13.5 °F 84% 30.22 in 10.0 mi SE 8.1 mph - N/A   Clear
4:15 AM 17.6 °F 7.3 °F 13.6 °F 84% 30.21 in 10.0 mi SE 8.1 mph - N/A   Clear
4:35 AM 17.6 °F 6.4 °F 13.6 °F 84% 30.21 in 10.0 mi SSE 9.2 mph - N/A   Clear
4:55 AM 17.4 °F 7.1 °F 13.6 °F 85% 30.21 in 10.0 mi SE 8.1 mph - N/A   Clear
5:15 AM 17.1 °F 6.6 °F 13.5 °F 86% 30.21 in 10.0 mi SSE 8.1 mph - N/A   Clear
5:35 AM 17.6 °F 7.3 °F 14.0 °F 86% 30.21 in 10.0 mi SSE 8.1 mph - N/A   Mostly Cloudy
5:55 AM 17.6 °F 8.2 °F 13.8 °F 85% 30.21 in 10.0 mi SSE 6.9 mph - N/A   Mostly Cloudy
6:15 AM 18.1 °F 7.1 °F 14.0 °F 84% 30.22 in 10.0 mi SSE 9.2 mph - N/A   Clear
6:35 AM 18.9 °F 8.0 °F 14.4 °F 83% 30.22 in 10.0 mi SSE 9.2 mph - N/A   Clear
6:55 AM 19.4 °F 7.9 °F 14.2 °F 80% 30.20 in 10.0 mi SSE 10.4 mph - N/A   Clear
7:15 AM 19.4 °F 8.6 °F 14.5 °F 81% 30.21 in 10.0 mi SSE 9.2 mph - N/A   Clear
7:35 AM 19.9 °F 7.9 °F 14.9 °F 81% 30.20 in 10.0 mi SSE 11.5 mph - N/A   Clear
7:55 AM 21.2 °F 8.9 °F 15.6 °F 79% 30.19 in 10.0 mi SSE 12.7 mph - N/A   Clear
8:15 AM 22.8 °F 10.4 °F 16.7 °F 77% 30.19 in 10.0 mi SSE 13.8 mph - N/A   Clear
8:35 AM 24.3 °F 11.7 °F 17.4 °F 75% 30.18 in 10.0 mi SSE 15.0 mph - N/A   Clear
8:55 AM 26.2 °F 13.8 °F 18.1 °F 71% 30.18 in 10.0 mi South 16.1 mph - N/A   Clear
9:15 AM 28.0 °F 16.1 °F 18.3 °F 67% 30.17 in 10.0 mi SSE 16.1 mph - N/A   Clear
9:35 AM 29.7 °F 18.6 °F 19.0 °F 65% 30.17 in 10.0 mi SSE 15.0 mph - N/A   Clear
9:55 AM 31.6 °F 20.4 °F 18.9 °F 59% 30.16 in 10.0 mi SSE 17.3 mph - N/A   Clear
10:15 AM 32.7 °F 21.8 °F 18.3 °F 55% 30.16 in 10.0 mi SSE 17.3 mph - N/A   Scattered Clouds
10:35 AM 34.7 °F 24.0 °F 18.3 °F 51% 30.15 in 10.0 mi SSE 18.4 mph - N/A   Scattered Clouds
10:55 AM 35.6 °F 25.9 °F 18.0 °F 49% 30.14 in 10.0 mi SSE 16.1 mph 21.9 mph N/A   Scattered Clouds
11:15 AM 36.7 °F 26.0 °F 17.6 °F 46% 30.13 in 10.0 mi South 20.7 mph - N/A   Mostly Cloudy
11:35 AM 39.2 °F 29.6 °F 18.7 °F 44% 30.12 in 10.0 mi South 19.6 mph 28.8 mph N/A   Overcast
11:55 AM 40.1 °F 31.0 °F 18.0 °F 41% 30.11 in 10.0 mi SSE 18.4 mph - N/A   Mostly Cloudy
12:15 PM 41.7 °F 32.3 °F 18.1 °F 39% 30.10 in 10.0 mi South 21.9 mph 26.5 mph N/A   Mostly Cloudy
12:35 PM 41.9 °F 32.1 °F 18.1 °F 38% 30.08 in 10.0 mi South 24.2 mph 28.8 mph N/A   Mostly Cloudy
12:55 PM 44.1 °F 35.4 °F 18.5 °F 36% 30.06 in 10.0 mi SSE 21.9 mph 28.8 mph N/A   Mostly Cloudy
1:15 PM 45.1 °F 36.2 °F 18.1 °F 34% 30.03 in 10.0 mi SSE 25.3 mph 33.4 mph N/A   Scattered Clouds
1:35 PM 46.4 °F 37.7 °F 19.0 °F 34% 30.01 in 10.0 mi SSE 26.5 mph 31.1 mph N/A   Clear
1:55 PM 46.8 °F - 18.9 °F 33% 29.99 in 10.0 mi SSE 26.5 mph 29.9 mph N/A   Clear
2:15 PM 47.7 °F - 18.5 °F 31% 29.98 in 10.0 mi SSE 26.5 mph 33.4 mph N/A   Scattered Clouds
2:35 PM 48.4 °F - 19.2 °F 32% 29.96 in 10.0 mi SSE 25.3 mph 32.2 mph N/A   Scattered Clouds
2:55 PM 47.3 °F - 18.9 °F 32% 29.94 in 10.0 mi SSE 26.5 mph 33.4 mph N/A   Mostly Cloudy
3:15 PM 46.9 °F - 19.4 °F 34% 29.92 in 10.0 mi SSE 26.5 mph 32.2 mph N/A   Overcast
3:35 PM 47.3 °F - 19.6 °F 33% 29.91 in 10.0 mi SSE 25.3 mph 33.4 mph N/A   Overcast
3:55 PM 47.5 °F - 19.9 °F 34% 29.90 in 10.0 mi SSE 26.5 mph 34.5 mph N/A   Overcast
4:15 PM 48.6 °F - 20.7 °F 33% 29.90 in 10.0 mi South 23.0 mph 31.1 mph N/A   Overcast
4:35 PM 49.1 °F - 20.7 °F 33% 29.89 in 10.0 mi South 25.3 mph 32.2 mph N/A   Overcast
4:55 PM 48.2 °F - 20.8 °F 34% 29.88 in 10.0 mi South 26.5 mph 32.2 mph N/A   Overcast
5:35 PM 47.5 °F - 21.0 °F 35% 29.86 in 10.0 mi SSE 24.2 mph - N/A   Overcast
5:55 PM 47.7 °F - 22.3 °F 37% 29.85 in 10.0 mi SSE 17.3 mph 24.2 mph N/A   Mostly Cloudy
6:15 PM 47.3 °F - 23.2 °F 39% 29.85 in 10.0 mi SSE 19.6 mph 26.5 mph N/A   Mostly Cloudy
6:35 PM 47.3 °F - 22.8 °F 38% 29.84 in 10.0 mi South 20.7 mph 24.2 mph N/A   Scattered Clouds
6:55 PM 46.9 °F - 23.0 °F 39% 29.84 in 10.0 mi South 18.4 mph 26.5 mph N/A   Clear
7:15 PM 45.5 °F 38.1 °F 23.5 °F 42% 29.83 in 10.0 mi South 18.4 mph - N/A   Clear
7:35 PM 44.6 °F 36.9 °F 23.9 °F 44% 29.82 in 10.0 mi South 18.4 mph - N/A   Clear
7:55 PM 44.1 °F 36.2 °F 23.9 °F 45% 29.82 in 10.0 mi South 18.4 mph - N/A   Clear
8:15 PM 43.9 °F 35.9 °F 23.9 °F 45% 29.82 in 10.0 mi SSE 18.4 mph - N/A   Clear
8:35 PM 44.4 °F 36.9 °F 24.1 °F 45% 29.81 in 10.0 mi South 17.3 mph - N/A   Mostly Cloudy
8:55 PM 45.0 °F 37.6 °F 24.1 °F 44% 29.81 in 10.0 mi South 17.3 mph - N/A   Overcast
9:15 PM 45.0 °F 37.6 °F 24.3 °F 44% 29.81 in 10.0 mi South 17.3 mph - N/A   Overcast
9:35 PM 44.8 °F 37.7 °F 24.8 °F 46% 29.81 in 10.0 mi South 16.1 mph - N/A   Overcast
9:55 PM 44.6 °F 38.1 °F 25.3 °F 47% 29.82 in 10.0 mi South 13.8 mph - N/A   Overcast
10:15 PM 43.7 °F 37.7 °F 25.7 °F 49% 29.81 in 10.0 mi South 11.5 mph - N/A   Overcast
10:35 PM 45.7 °F 37.1 °F 33.8 °F 63% 29.82 in 10.0 mi SSW 24.2 mph 38.0 mph N/A   Overcast
10:55 PM 43.7 °F 34.5 °F 35.1 °F 72% 29.82 in 10.0 mi SSW 24.2 mph 34.5 mph N/A   Overcast
11:15 PM 41.0 °F 32.5 °F 36.7 °F 85% 29.82 in 7.0 mi South 17.3 mph - N/A Rain Light Rain
11:35 PM 40.1 °F 31.3 °F 36.7 °F 88% 29.81 in 7.0 mi South 17.3 mph 24.2 mph 0.01 in Rain Light Rain
11:55 PM 39.6 °F 31.3 °F 37.0 °F 91% 29.81 in 10.0 mi South 15.0 mph 19.6 mph 0.01 in Rain Light Rain